Weather in Samofalovka

Russia / Volgograd Oblast     48°56′52″N   44°12′56″E
temp.,
°C
wind,
m/s
gust,
m/s
humid.,
%
clouds,
%
prec.,
mm/h
press.,
hPa
HPBL,
m
5 december, sun
sun500:00+2n6793100 0.3 1015298
03:00+2ne4690100 0.3 1015279
06:00+2ene5892100 0.5 1014301
09:00+2e5891100 1.6 1014295
12:00+3e5895100 3.9 1012241
15:00+3ene5897100 7.1 1011273
18:00+2ne5896100 1.4 1013272
21:00+2ne5893100 1.7 1014291
6 december, mon
mon600:00+1ne5793100 0.1 1015293
03:00+1nne4892100 0.2 1017332
06:00+1ne4690100 0.1 1018298
09:00+1ne3591100 0.3 1020254
12:00+1ene3490100 0.2 1021237
15:00+1ene2389100 0.2 1022211
18:00+1e2289100 0.0 1023181
21:00+1e2289100 0.0 1024156
7 december, tue
tue700:00+1e239198 0.0 1024164
03:000ese3396100 0.0 102561
06:000e3597100 0.0 1025110
09:00+1ese489439 0.0 1025231
12:00+4se5983100 0.0 1024326
15:00+5se51080100 0.0 1023360
18:00+4se61287100 0.0 1023308
21:00+4se71488100 0.0 1022336
8 december, wed
wed800:00+4se71589100 0.0 1021343
03:00+4se7169096 0.0 1020377
06:00+4ese7178996 0.0 1019408
09:00+4ese8188399 0.0 1018519
12:00+8se8176672 0.0 1017701
15:00+8ese7156392 0.0 1015716
18:00+7ese71569100 0.0 1015516
21:00+6ese71469100 0.0 1015534
9 december, thu
thu900:00+5ese61269100 0.0 1015511
03:00+5ese61068100 0.0 1015405
06:00+4se487178 0.0 1015310
09:00+4ese3576100 0.0 1016220
12:00+6se2368100 0.0 1016321
15:00+6se3471100 0.0 1016245
18:00+4se2279100 0.0 101734
21:00+5sse2378100 0.0 101767